SQ9SMC-13 Weather Reports


time (UTC)temp
F
wind
direction
speed
knots
gust
knots
rain 1hr
in
rain 24hr
in
rain mn
in
humidity
%
barometer
mb
20260905183503 62 68 0.0 0.9 0.00 0.00 0.11 60 1019.7
20260905183004 62 83 0.9 1.7 0.00 0.00 0.11 59 1019.8
20260905182502 63 66 0.9 2.6 0.00 0.00 0.11 59 1019.6
20260905182003 63 86 1.7 1.7 0.00 0.00 0.11 58 1019.6
20260905181502 63 105 0.9 4.3 0.00 0.00 0.11 57 1019.5
20260905181003 64 30 0.9 2.6 0.00 0.00 0.11 57 1019.5
20260905180504 64 42 0.9 1.7 0.00 0.00 0.11 56 1019.6
20260905180004 64 46 0.9 0.9 0.00 0.00 0.11 56 1019.7
20260905175503 64 81 0.0 0.9 0.00 0.00 0.11 56 1019.5
20260905175005 64 67 0.0 2.6 0.00 0.00 0.11 56 1019.4
20260905174502 64 82 1.7 6.1 0.00 0.00 0.11 55 1019.4
20260905174003 64 281 0.0 0.9 0.00 0.00 0.11 55 1019.3
20260905173502 64 152 0.0 2.6 0.00 0.00 0.11 56 1019.4
20260905173004 64 66 0.0 1.7 0.00 0.00 0.11 55 1019.4
20260905172503 64 100 0.9 0.9 0.00 0.00 0.11 55 1019.2
20260905172003 65 104 0.9 1.7 0.00 0.00 0.11 56 1019.4
20260905171502 64 153 0.0 1.7 0.00 0.00 0.11 56 1019.4
20260905171002 65 58 0.0 0.9 0.00 0.00 0.11 55 1019.1
20260905170505 65 100 0.0 4.3 0.00 0.00 0.11 54 1019.1
20260905170003 65 119 0.9 1.7 0.00 0.00 0.11 54 1019.1
20260905165502 66 92 0.9 2.6 0.00 0.00 0.11 53 1018.9
20260905165003 66 68 0.9 4.3 0.00 0.00 0.11 52 1018.9
20260905164503 66 136 0.9 4.3 0.00 0.00 0.11 52 1018.8
20260905164003 66 48 3.5 5.2 0.00 0.00 0.11 51 1018.8
20260905163503 66 94 0.0 1.7 0.00 0.00 0.11 52 1018.7
20260905163003 67 352 0.9 6.1 0.00 0.00 0.11 51 1018.7
20260905162502 67 57 0.9 1.7 0.00 0.00 0.11 51 1018.7
20260905162003 68 109 0.0 5.2 0.00 0.00 0.11 51 1018.6
20260905161503 66 21 0.9 2.6 0.00 0.00 0.11 51 1018.4
20260905161005 66 120 4.3 6.1 0.00 0.00 0.11 51 1018.5
20260905160504 66 107 0.0 2.6 0.00 0.00 0.11 52 1018.5
20260905160004 67 39 0.9 7.8 0.00 0.00 0.11 50 1018.7
20260905155505 67 129 0.9 5.2 0.00 0.00 0.11 51 1018.4
20260905155003 69 320 0.9 5.2 0.00 0.00 0.11 49 1018.4
20260905154503 69 58 1.7 2.6 0.00 0.00 0.11 49 1018.5
20260905154003 69 146 3.5 6.1 0.00 0.00 0.11 48 1018.4
20260905153503 68 105 2.6 4.3 0.00 0.00 0.11 51 1018.2
20260905153003 67 153 6.1 8.7 0.00 0.00 0.11 51 1018.4
20260905152503 67 26 0.9 2.6 0.00 0.00 0.11 52 1018.4
20260905152002 68 106 1.7 7.8 0.00 0.00 0.11 52 1018.3
20260905151503 68 108 2.6 8.7 0.00 0.00 0.11 51 1018.4
20260905151003 69 47 4.3 7.8 0.00 0.00 0.11 49 1018.3
20260905150503 69 43 5.2 7.8 0.00 0.00 0.11 49 1018.1
20260905150002 71 69 6.1 8.7 0.00 0.00 0.11 48 1018.2
20260905145504 69 230 0.9 1.7 0.00 0.00 0.11 50 1018.3
20260905145003 69 19 0.9 5.2 0.00 0.00 0.11 49 1018.2
20260905144503 68 159 3.5 9.6 0.00 0.00 0.11 49 1018.3
20260905144003 68 111 4.3 11.3 0.00 0.00 0.11 50 1018.3
20260905143504 68 115 4.3 7.0 0.00 0.00 0.11 51 1018.3
20260905143004 69 57 4.3 6.1 0.00 0.00 0.11 49 1018.5
20260905142503 68 71 0.9 7.8 0.00 0.00 0.11 51 1018.3
20260905142003 68 167 2.6 6.1 0.00 0.00 0.11 51 1018.2
20260905141502 69 104 7.0 7.8 0.00 0.00 0.11 49 1018.6
20260905141004 70 23 4.3 6.1 0.00 0.00 0.11 51 1018.3
20260905140505 69 251 6.1 9.6 0.00 0.00 0.11 51 1018.0
20260905140002 69 75 1.7 7.0 0.00 0.00 0.11 52 1018.3
20260905135503 70 62 3.5 8.7 0.00 0.00 0.11 50 1018.2
20260905135004 71 134 1.7 7.0 0.00 0.00 0.11 51 1018.3
20260905134503 71 98 3.5 5.2 0.00 0.00 0.11 49 1018.3
20260905134003 68 58 1.7 15.6 0.00 0.00 0.11 53 1018.3
20260905133502 69 26 4.3 8.7 0.00 0.00 0.11 52 1018.3
20260905133004 70 119 4.3 7.0 0.00 0.00 0.11 50 1018.3
20260905132502 69 120 7.0 8.7 0.00 0.00 0.11 49 1018.4
20260905132004 68 138 4.3 8.7 0.00 0.00 0.11 50 1018.4
20260905131504 69 123 6.1 12.2 0.00 0.00 0.11 49 1018.6
20260905131003 71 117 6.1 8.7 0.00 0.00 0.11 47 1018.6
20260905130503 71 116 2.6 7.0 0.00 0.00 0.11 48 1018.4
20260905130004 71 107 4.3 7.0 0.00 0.00 0.11 49 1018.5
20260905125504 69 90 1.7 9.6 0.00 0.00 0.11 50 1018.4
20260905125002 70 52 2.6 7.8 0.00 0.00 0.11 51 1018.4
20260905124503 69 87 5.2 8.7 0.00 0.00 0.11 48 1018.4
20260905124002 70 96 4.3 7.0 0.00 0.00 0.11 50 1018.5
20260905123504 71 125 6.1 8.7 0.00 0.00 0.11 50 1018.4
20260905123005 71 143 4.3 7.0 0.00 0.00 0.11 50 1018.6
20260905122503 72 81 2.6 8.7 0.00 0.00 0.11 50 1018.3
20260905122003 71 151 1.7 7.0 0.00 0.00 0.11 51 1018.4
20260905121504 70 152 4.3 12.2 0.00 0.00 0.11 50 1018.5
20260905121003 69 135 3.5 9.6 0.00 0.00 0.11 53 1018.6
20260905120503 69 105 6.1 12.2 0.00 0.00 0.11 51 1018.5
20260905120005 69 27 7.8 9.6 0.00 0.00 0.11 51 1018.6
20260905115503 70 171 7.0 9.6 0.00 0.00 0.11 50 1018.6
20260905115002 70 131 3.5 6.1 0.00 0.00 0.11 51 1018.7
20260905114502 70 111 4.3 7.8 0.00 0.00 0.11 51 1018.6
20260905114006 68 72 2.6 7.0 0.00 0.00 0.11 55 1018.6
20260905113502 66 122 5.2 13.0 0.00 0.00 0.11 57 1018.6
20260905113002 68 122 4.3 9.6 0.00 0.00 0.11 54 1018.5
20260905112504 66 86 6.1 9.6 0.00 0.00 0.11 56 1018.5
20260905112004 66 150 3.5 6.1 0.00 0.00 0.11 56 1018.6
20260905111504 68 164 7.0 12.2 0.00 0.00 0.11 54 1018.3
20260905111003 68 118 3.5 11.3 0.00 0.00 0.11 55 1018.3
20260905110503 68 68 4.3 9.6 0.00 0.00 0.11 55 1018.3
20260905110003 68 88 3.5 6.1 0.00 0.00 0.11 56 1018.4
20260905105502 69 95 4.3 6.1 0.00 0.00 0.11 53 1018.4
20260905105004 70 124 2.6 5.2 0.00 0.00 0.11 52 1018.2
20260905104504 69 97 6.1 11.3 0.00 0.00 0.11 55 1018.5
20260905104002 68 332 0.9 11.3 0.00 0.00 0.11 58 1018.4
20260905103504 68 119 4.3 7.0 0.00 0.00 0.11 57 1018.3
20260905103003 68 11 4.3 12.2 0.00 0.00 0.11 55 1018.4
20260905102503 68 20 4.3 13.0 0.00 0.00 0.11 54 1018.3
20260905102004 68 154 7.0 9.6 0.00 0.00 0.11 52 1018.3
20260905101503 68 175 2.6 11.3 0.00 0.00 0.11 53 1018.4
20260905101005 68 37 3.5 11.3 0.00 0.00 0.11 56 1018.2
20260905100503 67 149 2.6 6.1 0.00 0.00 0.11 59 1018.3
20260905100004 68 131 2.6 7.8 0.00 0.00 0.11 57 1018.2
20260905095503 68 70 3.5 12.2 0.00 0.00 0.11 57 1018.1
20260905095005 67 74 6.1 9.6 0.00 0.00 0.11 59 1018.0
20260905094503 68 322 3.5 12.2 0.00 0.00 0.11 60 1018.0
20260905094003 67 77 5.2 13.0 0.00 0.00 0.11 61 1017.9
20260905093503 68 105 3.5 9.6 0.00 0.00 0.11 61 1018.0
20260905093004 67 64 5.2 11.3 0.00 0.00 0.11 61 1018.2
20260905092505 65 98 6.1 8.7 0.00 0.00 0.11 63 1018.2
20260905092004 66 87 7.8 11.3 0.00 0.00 0.11 65 1018.1
20260905091504 66 130 1.7 7.8 0.00 0.00 0.11 68 1018.3
20260905091003 66 151 2.6 8.7 0.00 0.00 0.11 68 1018.2
20260905090502 66 114 4.3 6.1 0.00 0.00 0.11 68 1018.1
20260905090003 65 132 4.3 7.8 0.00 0.00 0.11 69 1018.2
20260905085504 64 197 6.1 8.7 0.00 0.00 0.11 72 1018.1
20260905085003 64 59 0.9 5.2 0.00 0.00 0.11 76 1018.1
20260905084504 64 159 3.5 7.0 0.00 0.00 0.11 73 1018.1
20260905084003 65 49 4.3 8.7 0.00 0.00 0.11 71 1018.2
20260905083502 66 95 2.6 7.0 0.00 0.00 0.11 72 1018.0
20260905083003 65 141 2.6 7.0 0.00 0.00 0.11 74 1018.0
20260905082503 64 43 4.3 7.0 0.00 0.00 0.11 76 1018.0
20260905082005 64 88 1.7 9.6 0.00 0.00 0.11 74 1018.0
20260905081503 63 81 3.5 11.3 0.00 0.00 0.11 77 1018.0
20260905081004 64 72 1.7 9.6 0.00 0.00 0.11 78 1018.0
20260905080503 63 111 1.7 6.1 0.00 0.00 0.11 79 1017.8
20260905080002 63 70 2.6 7.0 0.00 0.00 0.11 80 1017.7
20260905075502 63 64 5.2 12.2 0.00 0.00 0.11 79 1017.8
20260905075004 63 120 4.3 9.6 0.00 0.00 0.11 79 1017.7
20260905074502 64 71 3.5 7.0 0.00 0.00 0.11 78 1017.7
20260905074004 63 92 2.6 9.6 0.00 0.00 0.11 79 1017.8
20260905073502 62 20 3.5 7.0 0.00 0.00 0.11 80 1017.6
20260905073003 62 79 3.5 8.7 0.00 0.00 0.11 79 1017.6
20260905072503 62 40 2.6 5.2 0.00 0.00 0.11 81 1017.7
20260905072003 62 30 2.6 6.1 0.00 0.00 0.11 82 1017.7
20260905071502 62 115 2.6 7.0 0.00 0.00 0.11 83 1017.6
20260905071004 62 39 1.7 6.1 0.00 0.00 0.11 85 1017.5
20260905070503 61 48 4.3 6.1 0.00 0.00 0.11 86 1017.5
20260905070004 60 89 0.9 2.6 0.00 0.00 0.11 88 1017.6
20260905065504 60 199 2.6 2.6 0.00 0.00 0.11 88 1017.6
20260905065003 60 94 2.6 5.2 0.00 0.00 0.11 88 1017.5
20260905064506 60 54 2.6 5.2 0.00 0.00 0.11 88 1017.3
20260905064004 59 260 0.9 4.3 0.00 0.00 0.11 89 1017.3
20260905063502 59 104 3.5 5.2 0.00 0.00 0.11 89 1017.4
20260905063003 59 149 2.6 5.2 0.00 0.00 0.11 90 1017.3
20260905062503 59 38 2.6 6.1 0.00 0.00 0.11 90 1017.1
20260905062003 59 47 2.6 4.3 0.00 0.00 0.11 91 1017.0
20260905061504 59 50 3.5 5.2 0.00 0.00 0.11 91 1016.8
20260905061003 59 23 2.6 5.2 0.00 0.00 0.11 92 1016.8
20260905060502 59 79 2.6 5.2 0.00 0.00 0.11 92 1016.9
20260905060006 59 86 0.9 2.6 0.00 0.00 0.11 92 1017.0
20260905055503 59 130 2.6 5.2 0.00 0.00 0.11 92 1016.9
20260905055003 59 90 2.6 7.0 0.00 0.00 0.11 92 1016.8
20260905054502 59 88 2.6 5.2 0.00 0.00 0.11 92 1016.9
20260905054002 59 69 0.9 5.2 0.00 0.00 0.11 92 1016.9
20260905053504 59 89 1.7 7.0 0.00 0.00 0.11 93 1016.8
20260905053004 59 99 2.6 2.6 0.00 0.00 0.11 93 1016.9
20260905052503 59 222 0.9 2.6 0.00 0.00 0.11 93 1016.6
20260905052003 59 22 3.5 5.2 0.00 0.00 0.11 92 1016.7
20260905051503 59 109 2.6 5.2 0.00 0.00 0.11 93 1016.4
20260905051003 59 140 0.0 2.6 0.00 0.00 0.11 93 1016.4
20260905050503 59 112 1.7 2.6 0.00 0.00 0.11 93 1016.1
20260905050004 59 81 2.6 2.6 0.00 0.00 0.11 93 1016.1
20260905045502 59 83 1.7 8.7 0.00 0.00 0.11 93 1016.0
20260905045002 59 87 3.5 6.1 0.00 0.00 0.11 93 1016.0
20260905044503 59 105 1.7 7.0 0.00 0.00 0.11 93 1016.0
20260905044003 59 65 0.9 6.1 0.00 0.00 0.11 93 1016.0
20260905043505 59 25 0.9 4.3 0.00 0.00 0.11 93 1016.0
20260905043002 59 78 0.9 7.0 0.00 0.00 0.11 93 1015.6
20260905042503 59 78 2.6 5.2 0.00 0.00 0.11 94 1015.8
20260905042003 59 162 2.6 5.2 0.00 0.00 0.11 94 1015.6
20260905041503 59 51 1.7 5.2 0.00 0.00 0.11 94 1015.6
20260905041003 59 119 1.7 4.3 0.00 0.00 0.11 95 1015.8
20260905040503 59 81 5.2 7.0 0.00 0.00 0.11 95 1015.6
20260905040002 59 154 4.3 7.8 0.01 0.00 0.11 95 1015.2
20260905035502 59 83 2.6 6.1 0.01 0.00 0.11 96 1015.2
20260905035003 59 86 1.7 2.6 0.01 0.00 0.11 96 1015.2
20260905034503 59 65 3.5 7.0 0.01 0.00 0.11 97 1015.3
20260905034003 59 103 3.5 6.1 0.01 0.00 0.11 97 1015.3
20260905033504 59 68 2.6 7.0 0.01 0.00 0.11 97 1015.3
20260905033003 59 79 1.7 6.1 0.01 0.00 0.11 97 1015.2
20260905032503 59 123 3.5 7.0 0.01 0.00 0.11 98 1014.8
20260905032003 59 71 0.9 4.3 0.01 0.00 0.11 98 1014.7
20260905031503 59 86 2.6 2.6 0.01 0.00 0.11 98 1014.2
20260905031003 59 49 2.6 5.2 0.01 0.00 0.11 98 1014.5
20260905030503 59 152 3.5 6.1 0.01 0.00 0.11 98 1014.7
20260905030004 59 349 0.9 4.3 0.00 0.00 0.10 98 1014.7
20260905025502 59 122 0.9 2.6 0.00 0.00 0.10 98 1014.6
20260905025003 59 315 0.9 2.6 0.00 0.00 0.10 98 1014.5
20260905024503 59 73 0.9 2.6 0.00 0.00 0.10 98 1014.9
20260905024003 59 69 0.0 1.7 0.00 0.00 0.10 98 1014.3
20260905023503 59 105 1.7 4.3 0.00 0.00 0.10 98 1014.2
20260905023002 59 66 0.9 1.7 0.00 0.00 0.10 97 1014.0
20260905022503 59 63 0.9 1.7 0.00 0.00 0.10 97 1014.2
20260905022004 59 122 2.6 4.3 0.00 0.00 0.10 97 1014.5
20260905021504 59 143 0.9 5.2 0.00 0.00 0.10 97 1014.3
20260905021003 59 98 2.6 6.1 0.00 0.00 0.10 97 1014.4
20260905020503 59 338 2.6 7.8 0.00 0.00 0.10 97 1014.4
20260905020005 59 112 2.6 4.3 0.00 0.00 0.10 97 1014.6
20260905015504 59 148 0.9 5.2 0.00 0.00 0.10 97 1014.7
20260905015003 59 116 4.3 6.1 0.00 0.00 0.10 97 1015.1
20260905014503 59 126 1.7 5.2 0.01 0.00 0.10 97 1014.8
20260905014003 59 51 1.7 7.0 0.01 0.00 0.10 97 1014.4
20260905013503 59 98 3.5 5.2 0.01 0.00 0.10 97 1014.7
20260905013002 59 96 2.6 4.3 0.01 0.00 0.10 97 1014.2
20260905012503 59 72 0.9 2.6 0.01 0.00 0.10 97 1014.5
20260905012003 59 55 2.6 11.3 0.01 0.00 0.10 97 1014.4
20260905011503 59 61 0.9 5.2 0.01 0.00 0.10 97 1014.2
20260905011003 59 132 0.9 2.6 0.02 0.00 0.10 98 1014.0
20260905010502 59 28 1.7 6.1 0.02 0.00 0.10 98 1013.9
20260905010007 59 123 0.0 2.6 0.02 0.00 0.10 98 1014.0
20260905005502 59 34 0.9 4.3 0.02 0.00 0.10 97 1014.0
20260905005004 59 44 0.0 4.3 0.02 0.00 0.10 97 1014.0
20260905004504 59 77 1.7 7.0 0.01 0.00 0.09 97 1014.1
20260905004003 59 158 1.7 5.2 0.01 0.00 0.09 97 1014.3
20260905003504 59 183 0.9 2.6 0.01 0.00 0.09 97 1014.1
20260905003003 59 123 2.6 5.2 0.01 0.00 0.09 97 1014.2
20260905002504 59 90 2.6 6.1 0.02 0.00 0.09 97 1014.1
20260905002003 59 100 0.9 2.6 0.02 0.00 0.09 97 1014.0
20260905001503 59 137 0.9 4.3 0.04 0.00 0.08 97 1014.4
20260905001003 59 34 1.7 5.2 0.04 0.00 0.08 97 1014.2
20260905000504 59 32 2.6 4.3 0.04 0.00 0.08 96 1014.1
20260905000002 59 145 1.7 4.3 0.04 0.00 0.08 96 1013.9
20260904235503 59 82 0.9 5.2 0.05 0.00 0.08 96 1013.8
20260904235003 59 52 1.7 2.6 0.06 0.00 0.08 96 1013.7
20260904234504 59 83 0.9 2.6 0.06 0.00 0.08 96 1013.8
20260904234003 59 100 0.9 2.6 0.06 0.00 0.08 96 1014.0
20260904233504 59 94 3.5 5.2 0.07 0.00 0.08 96 1014.2
20260904233004 59 109 4.3 6.1 0.07 0.00 0.07 96 1013.9
20260904232503 59 6 0.9 1.7 0.07 0.00 0.07 95 1013.8
20260904232002 60 51 0.9 6.1 0.06 0.00 0.06 94 1014.2
20260904231504 60 89 0.9 5.2 0.04 0.00 0.04 94 1013.8
20260904231003 60 40 0.9 2.6 0.04 0.00 0.04 94 1013.6
20260904230504 60 102 1.7 2.6 0.04 0.00 0.04 93 1013.8
20260904230005 60 25 0.9 7.0 0.04 0.00 0.04 92 1013.6
20260904225504 60 68 0.9 5.2 0.03 0.00 0.03 92 1013.8
20260904225003 61 107 2.6 5.2 0.02 0.00 0.02 91 1013.5
20260904224503 61 131 1.7 4.3 0.02 0.00 0.02 90 1013.2
20260904224004 62 212 3.5 6.1 0.02 0.00 0.02 88 1013.1
20260904223503 63 85 1.7 4.3 0.01 0.00 0.01 85 1013.1
20260904223003 63 89 4.3 6.1 0.00 0.00 0.00 83 1013.1
20260904222502 63 112 3.5 5.2 0.00 0.00 0.00 83 1012.7
20260904222003 63 262 2.6 5.2 0.00 0.00 0.00 84 1012.9
20260904221502 63 159 2.6 5.2 0.00 0.00 0.00 85 1012.6
20260904221004 64 1 0.9 7.0 0.00 0.00 0.00 85 1012.6
20260904220003 64 135 1.7 7.0 0.00 0.00 0.00 84 1012.5
20260904215504 65 108 1.7 6.1 0.00 0.00 0.00 83 1012.8
20260904215002 65 131 1.7 19.1 0.00 0.00 0.00 81 1012.9
20260904214503 67 124 7.0 9.6 0.00 0.00 0.00 76 1012.8
20260904214002 67 105 4.3 7.0 0.00 0.00 0.00 76 1012.7
20260904213503 67 108 1.7 5.2 0.00 0.00 0.00 75 1012.4
20260904213003 68 84 1.7 5.2 0.00 0.00 0.00 74 1012.2
20260904212502 68 149 2.6 5.2 0.00 0.00 0.00 73 1012.3
20260904212003 69 141 4.3 8.7 0.00 0.00 0.00 73 1012.3
20260904211502 69 160 2.6 6.1 0.00 0.00 0.00 74 1012.2
20260904211004 70 91 3.5 7.0 0.00 0.00 0.00 75 1012.1
20260904210503 71 99 3.5 5.2 0.00 0.00 0.00 73 1012.2
20260904210003 72 90 6.1 12.2 0.00 0.00 0.00 72 1012.1
20260904205502 73 133 3.5 8.7 0.00 0.00 0.00 71 1012.0
20260904205002 73 132 7.0 9.6 0.00 0.00 0.00 69 1012.2
20260904204504 74 88 2.6 4.3 0.00 0.00 0.00 66 1011.6
20260904204004 74 42 6.1 14.8 0.00 0.00 0.00 64 1011.0
20260904203502 74 102 3.5 5.2 0.00 0.00 0.00 63 1011.0
20260904203003 73 353 0.0 2.6 0.00 0.00 0.00 65 1011.0
20260904202502 73 137 0.9 2.6 0.00 0.00 0.00 64 1010.7
20260904202004 74 271 1.7 2.6 0.00 0.00 0.00 64 1010.4
20260904201503 73 31 1.7 5.2 0.00 0.00 0.00 64 1010.4
20260904201003 73 37 3.5 7.0 0.00 0.00 0.00 66 1010.4
20260904200502 72 56 2.6 4.3 0.00 0.00 0.00 68 1010.4
20260904200004 72 99 1.7 6.1 0.00 0.00 0.00 69 1010.5
20260904195503 72 101 1.7 5.2 0.00 0.00 0.00 69 1010.4
20260904195002 72 32 3.5 5.2 0.00 0.00 0.00 66 1010.1
20260904194502 72 44 3.5 5.2 0.00 0.00 0.00 66 1010.3
20260904194002 72 48 1.7 7.0 0.00 0.00 0.00 66 1010.5
20260904193503 72 109 2.6 2.6 0.00 0.00 0.00 67 1010.6
20260904193004 72 99 0.9 4.3 0.00 0.00 0.00 67 1010.7
20260904192503 72 345 0.9 2.6 0.00 0.00 0.00 67 1010.5
20260904192004 72 46 0.9 1.7 0.00 0.00 0.00 67 1010.5
20260904191504 72 3 1.7 5.2 0.00 0.00 0.00 67 1010.6
20260904191004 72 55 1.7 4.3 0.00 0.00 0.00 68 1010.5
20260904190503 72 42 0.9 6.1 0.00 0.00 0.00 68 1010.5
20260904190005 72 32 3.5 6.1 0.00 0.00 0.00 68 1010.4
20260904185502 71 17 1.7 6.1 0.00 0.00 0.00 68 1010.8
20260904185004 71 76 0.9 4.3 0.00 0.00 0.00 69 1010.6
20260904184504 72 53 1.7 2.6 0.00 0.00 0.00 69 1010.5
20260904184003 71 53 0.9 1.7 0.00 0.00 0.00 69 1010.8